Mtwara, Tanzania

1:27 PM EAT on May 26, 2017 (GMT +0300)
Mtwara

Weather History for HTMT - October, 2013

Change the Weather History Date:

Friday, October 4, 2013

  Actual Average Record
Temperature  
Mean Temperature 76 °F -  
Max Temperature 87 °F - - ()
Min Temperature 66 °F - - ()
Cooling Degree Days 12    
Growing Degree Days 26 (Base 50)    
Moisture  
Dew Point 67 °F    
Average Humidity 71    
Maximum Humidity 91    
Minimum Humidity 40    
Precipitation  
Precipitation 0.00 in 0.04 in - ()
Sea Level Pressure  
Sea Level Pressure 30.03 in    
Wind  
Wind Speed 5 mph ()    
Max Wind Speed 21 mph    
Max Gust Speed -    
Visibility 9.0 miles    
Events      
T = Trace of Precipitation, MM = Missing Value Source: Averaged Metar Reports

Daily Weather History Graph

Daily Weather History Graph

Search for Another Location

Airport or City:

Trip Planner

Search our weather history database for the weather conditions in past years. The results will help you decide how hot, cold, wet, or windy it might be!

Date:

Astronomy

Oct. 04, 2013 Rise Set
Actual Time 6:01 AM EAT 6:14 PM EAT
Civil Twilight 5:40 AM EAT 6:35 PM EAT
Nautical Twilight 5:15 AM EAT 7:00 PM EAT
Astronomical Twilight 4:51 AM EAT 7:24 PM EAT
Moon 5:19 AM EAT (10/4) 5:48 PM EAT (10/4)
Length of Visible Light 12h 55m
Length of Day
12h 13m
Waning Crescent, 1% of the Moon is Illuminated
Oct 4
Waning Crescent
Oct 5
New
Oct 12
First Quarter
Oct 19
Full
Oct 27
Last Quarter

Hourly Weather History & Observations

Time (EAT) Temp. Heat Index Dew Point Humidity Pressure Visibility Wind Dir Wind Speed Gust Speed Precip Events Conditions
12:00 AM 73.4 °F - 64.4 °F 73% 30.04 in 6.2 mi Calm Calm - N/A   Partly Cloudy
1:00 AM 73.4 °F - 64.4 °F 73% 30.01 in 6.2 mi Calm Calm - N/A   Partly Cloudy
2:00 AM 73.4 °F - 64.4 °F 73% 30.01 in 6.2 mi Calm Calm - N/A   Partly Cloudy
3:00 AM 72 °F - 63 °F 66% 30.01 in 19 mi Calm Calm - -   Scattered Clouds
3:00 AM 71.6 °F - 62.6 °F 73% 30.01 in 6.2 mi Calm Calm - N/A   Partly Cloudy
4:00 AM 71.6 °F - 62.6 °F 73% 29.98 in 6.2 mi Calm Calm - N/A   Partly Cloudy
5:00 AM 71.6 °F - 62.6 °F 73% 30.01 in 6.2 mi Calm Calm - N/A   Partly Cloudy
6:00 AM 69 °F - 67 °F 91% 30.05 in 19 mi Calm Calm - -   Scattered Clouds
6:00 AM 69.8 °F - 66.2 °F 88% 30.04 in 6.2 mi Calm Calm - N/A   Partly Cloudy
8:00 AM 75.2 °F - 71.6 °F 89% 30.06 in 6.2 mi South 5.8 mph - N/A   Partly Cloudy
9:00 AM 77 °F - 71 °F 77% 30.10 in 19 mi SE 16.1 mph - -   Partly Cloudy
9:00 AM 77.0 °F - 71.6 °F 83% 30.09 in 6.2 mi SE 16.1 mph - N/A   Scattered Clouds
10:00 AM 84.2 °F 86.6 °F 66.2 °F 55% 30.09 in 6.2 mi ESE 11.5 mph - N/A   Scattered Clouds
1:00 PM 86.0 °F 88.2 °F 66.2 °F 51% 30.04 in 6.2 mi ESE 19.6 mph - N/A   Partly Cloudy
2:00 PM 86.0 °F 88.2 °F 66.2 °F 51% 30.04 in 6.2 mi ESE 20.7 mph - N/A   Partly Cloudy
3:00 PM 86 °F - 65 °F 40% 30.01 in 19 mi SSE 13.8 mph - -   Partly Cloudy
3:00 PM 86.0 °F 87.3 °F 64.4 °F 48% 30.01 in 6.2 mi SSE 13.8 mph - N/A   Partly Cloudy
4:00 PM 84.2 °F 86.6 °F 66.2 °F 55% 29.98 in 6.2 mi South 17.3 mph - N/A   Scattered Clouds
5:00 PM 82.4 °F 84.6 °F 66.2 °F 58% 29.98 in 6.2 mi ESE 18.4 mph - N/A   Scattered Clouds
6:00 PM 81 °F - 68 °F 55% 30.02 in 19 mi SE 12.7 mph - -   Scattered Clouds
6:00 PM 80.6 °F 83.2 °F 68.0 °F 65% 29.98 in 6.2 mi SE 12.7 mph - N/A   Partly Cloudy
7:00 PM 77.0 °F - 68.0 °F 74% 30.04 in 6.2 mi SE 6.9 mph - N/A   Partly Cloudy
8:00 PM 75.2 °F - 69.8 °F 83% 30.04 in 6.2 mi East 8.1 mph - N/A   Partly Cloudy
9:00 PM 74 °F - 69 °F 81% 30.07 in 19 mi ESE 5.8 mph - -   Scattered Clouds
9:00 PM 73.4 °F - 69.8 °F 88% 30.06 in 6.2 mi ESE 5.8 mph - N/A   Partly Cloudy
10:00 PM 73.4 °F - 69.8 °F 88% 30.06 in 6.2 mi East 5.8 mph - N/A   Partly Cloudy
11:00 PM 73.4 °F - 69.8 °F 88% 30.09 in 6.2 mi ESE 6.9 mph - N/A   Partly Cloudy